Darlington, SC

2:18 AM EDT on March 25, 2017 (GMT -0400)
Darlington County Jetport

Weather History for KUDG - May, 2013

Change the Weather History Date:

Wednesday, May 1, 2013

  Actual Average (KFLO) Record (KFLO)
Temperature  
Mean Temperature 63 °F -  
Max Temperature 71 °F 81 °F 96 °F (1986)
Min Temperature 55 °F 57 °F 42 °F (1996)
Degree Days  
Heating Degree Days 2    
Growing Degree Days 13 (Base 50)    
Moisture  
Dew Point 54 °F    
Average Humidity 72    
Maximum Humidity 88    
Minimum Humidity 57    
Precipitation  
Precipitation 0.00 in - - ()
Sea Level Pressure  
Sea Level Pressure 30.21 in    
Wind  
Wind Speed 9 mph (NNE)    
Max Wind Speed 16 mph    
Max Gust Speed 23 mph    
Visibility 10 miles    
Events      
Averages and records for this station are not official NWS values.
T = Trace of Precipitation, MM = Missing Value Source: NWS Daily Summary

Daily Weather History Graph

Daily Weather History Graph

Search for Another Location

Airport or City:

Trip Planner

Search our weather history database for the weather conditions in past years. The results will help you decide how hot, cold, wet, or windy it might be!

Date:

Astronomy

May. 01, 2013 Rise Set
Actual Time 6:29 AM EDT 8:04 PM EDT
Civil Twilight 6:02 AM EDT 8:31 PM EDT
Nautical Twilight 5:30 AM EDT 9:03 PM EDT
Astronomical Twilight 4:56 AM EDT 9:37 PM EDT
Moon 1:11 AM EDT (5/1) 12:05 PM EDT (5/1)
Length of Visible Light 14h 28m
Length of Day
13h 34m
Waning Gibbous, 59% of the Moon is Illuminated
May 1
Waning Gibbous
May 2
Last Quarter
May 9
New
May 18
First Quarter
May 25
Full

Hourly Weather History & Observations

Time (EDT) Temp. Dew Point Humidity Pressure Visibility Wind Dir Wind Speed Gust Speed Precip Events Conditions
12:15 AM 62.6 °F 55.4 °F 77% 30.16 in 10.0 mi NNE 8.1 mph - N/A   Clear
12:35 AM 60.8 °F 55.4 °F 82% 30.17 in 10.0 mi NNE 6.9 mph - N/A   Clear
12:55 AM 60.8 °F 53.6 °F 77% 30.17 in 10.0 mi NNE 3.5 mph - N/A   Clear
1:15 AM 60.8 °F 53.6 °F 77% 30.17 in 10.0 mi NNE 5.8 mph - N/A   Clear
1:35 AM 60.8 °F 53.6 °F 77% 30.17 in 10.0 mi NNE 5.8 mph - N/A   Clear
1:55 AM 60.8 °F 53.6 °F 77% 30.16 in 10.0 mi North 6.9 mph - N/A   Clear
2:15 AM 59.0 °F 53.6 °F 82% 30.16 in 10.0 mi North 8.1 mph - N/A   Clear
2:35 AM 59.0 °F 53.6 °F 82% 30.16 in 10.0 mi North 6.9 mph - N/A   Clear
2:55 AM 57.2 °F 53.6 °F 88% 30.15 in 10.0 mi North 6.9 mph - N/A   Clear
3:15 AM 59.0 °F 51.8 °F 77% 30.15 in 10.0 mi North 6.9 mph - N/A   Clear
3:35 AM 57.2 °F 51.8 °F 82% 30.15 in 10.0 mi North 6.9 mph - N/A   Clear
3:55 AM 57.2 °F 51.8 °F 82% 30.15 in 10.0 mi North 6.9 mph - N/A   Clear
4:15 AM 57.2 °F 51.8 °F 82% 30.15 in 10.0 mi North 8.1 mph - N/A   Clear
4:35 AM 55.4 °F 51.8 °F 88% 30.16 in 10.0 mi NNE 8.1 mph - N/A   Clear
4:55 AM 57.2 °F 51.8 °F 82% 30.16 in 10.0 mi NNE 11.5 mph - N/A   Mostly Cloudy
5:15 AM 59.0 °F 51.8 °F 77% 30.16 in 10.0 mi NNE 11.5 mph 16.1 mph N/A   Overcast
5:35 AM 57.2 °F 51.8 °F 82% 30.17 in 10.0 mi NNE 11.5 mph - N/A   Overcast
5:55 AM 59.0 °F 51.8 °F 77% 30.18 in 10.0 mi NNE 11.5 mph - N/A   Overcast
6:15 AM 59.0 °F 53.6 °F 82% 30.19 in 10.0 mi NNE 8.1 mph 17.3 mph N/A   Overcast
6:35 AM 60.8 °F 53.6 °F 77% 30.19 in 10.0 mi NNE 9.2 mph - N/A   Overcast
6:55 AM 59.0 °F 53.6 °F 82% 30.19 in 10.0 mi NNE 8.1 mph - N/A   Overcast
7:15 AM 60.8 °F 53.6 °F 77% 30.19 in 10.0 mi NNE 8.1 mph - N/A   Overcast
7:35 AM 60.8 °F 53.6 °F 77% 30.19 in 10.0 mi NNE 10.4 mph - N/A   Overcast
7:55 AM 60.8 °F 53.6 °F 77% 30.19 in 10.0 mi NNE 9.2 mph 16.1 mph N/A   Overcast
8:15 AM 62.6 °F 53.6 °F 72% 30.19 in 10.0 mi NNE 9.2 mph - N/A   Overcast
8:35 AM 62.6 °F 53.6 °F 72% 30.20 in 10.0 mi NNE 9.2 mph - N/A   Overcast
8:55 AM 62.6 °F 53.6 °F 72% 30.21 in 10.0 mi North 12.7 mph - N/A   Overcast
9:15 AM 62.6 °F 55.4 °F 77% 30.21 in 10.0 mi NNE 11.5 mph - N/A   Overcast
9:35 AM 62.6 °F 53.6 °F 72% 30.22 in 10.0 mi NNE 10.4 mph 16.1 mph N/A   Overcast
9:55 AM 62.6 °F 55.4 °F 77% 30.23 in 10.0 mi North 11.5 mph - N/A   Overcast
10:15 AM 62.6 °F 53.6 °F 72% 30.24 in 10.0 mi NNE 8.1 mph - N/A   Overcast
10:35 AM 64.4 °F 55.4 °F 73% 30.24 in 10.0 mi NNE 12.7 mph 16.1 mph N/A   Overcast
10:55 AM 66.2 °F 55.4 °F 68% 30.25 in 10.0 mi NNE 9.2 mph - N/A   Overcast
11:15 AM 66.2 °F 55.4 °F 68% 30.25 in 10.0 mi NNE 10.4 mph 16.1 mph N/A   Overcast
11:35 AM 66.2 °F 55.4 °F 68% 30.24 in 10.0 mi NE 15.0 mph 18.4 mph N/A   Overcast
12:15 PM 66.2 °F 55.4 °F 68% 30.23 in 10.0 mi NNE 12.7 mph - N/A   Overcast
12:35 PM 68.0 °F 55.4 °F 64% 30.22 in 10.0 mi NNE 16.1 mph - N/A   Overcast
12:55 PM 68.0 °F 55.4 °F 64% 30.21 in 10.0 mi NE 12.7 mph 19.6 mph N/A   Overcast
1:15 PM 69.8 °F 55.4 °F 60% 30.21 in 10.0 mi NE 12.7 mph 20.7 mph N/A   Overcast
1:35 PM 71.6 °F 55.4 °F 57% 30.21 in 10.0 mi NNE 13.8 mph 21.9 mph N/A   Overcast
1:55 PM 71.6 °F 55.4 °F 57% 30.21 in 10.0 mi NE 15.0 mph 18.4 mph N/A   Mostly Cloudy
2:15 PM 69.8 °F 55.4 °F 60% 30.22 in 10.0 mi NE 11.5 mph 18.4 mph N/A   Overcast
2:35 PM 71.6 °F 55.4 °F 57% 30.22 in 10.0 mi ENE 11.5 mph 16.1 mph N/A   Overcast
2:55 PM 69.8 °F 55.4 °F 60% 30.22 in 10.0 mi NNE 10.4 mph - N/A   Overcast
3:15 PM 69.8 °F 55.4 °F 60% 30.21 in 10.0 mi NE 10.4 mph 16.1 mph N/A   Overcast
3:35 PM 69.8 °F 55.4 °F 60% 30.21 in 10.0 mi NE 15.0 mph 19.6 mph N/A   Overcast
3:55 PM 69.8 °F 55.4 °F 60% 30.21 in 10.0 mi ENE 11.5 mph 17.3 mph N/A   Overcast
4:15 PM 69.8 °F 55.4 °F 60% 30.21 in 10.0 mi NE 11.5 mph - N/A   Overcast
4:35 PM 69.8 °F 55.4 °F 60% 30.22 in 10.0 mi NE 12.7 mph - N/A   Overcast
4:55 PM 68.0 °F 53.6 °F 60% 30.21 in 10.0 mi NE 13.8 mph 23.0 mph N/A   Overcast
5:15 PM 68.0 °F 55.4 °F 64% 30.22 in 10.0 mi ENE 11.5 mph - N/A   Overcast
5:35 PM 69.8 °F 55.4 °F 60% 30.22 in 10.0 mi NNE 11.5 mph - N/A   Overcast
5:55 PM 68.0 °F 55.4 °F 64% 30.21 in 10.0 mi NE 11.5 mph - N/A   Overcast
6:15 PM 69.8 °F 55.4 °F 60% 30.21 in 10.0 mi ENE 16.1 mph - N/A   Mostly Cloudy
6:35 PM 68.0 °F 55.4 °F 64% 30.22 in 10.0 mi NNE 11.5 mph - N/A   Scattered Clouds
6:55 PM 66.2 °F 55.4 °F 68% 30.21 in 10.0 mi NE 12.7 mph 17.3 mph N/A   Scattered Clouds
7:15 PM 66.2 °F 55.4 °F 68% 30.21 in 10.0 mi NE 10.4 mph - N/A   Partly Cloudy
7:35 PM 66.2 °F 55.4 °F 68% 30.21 in 10.0 mi NE 13.8 mph 17.3 mph N/A   Scattered Clouds
7:55 PM 64.4 °F 55.4 °F 73% 30.22 in 10.0 mi NE 9.2 mph - N/A   Mostly Cloudy
8:15 PM 64.4 °F 55.4 °F 73% 30.23 in 10.0 mi NNE 10.4 mph - N/A   Mostly Cloudy
8:35 PM 64.4 °F 55.4 °F 73% 30.24 in 10.0 mi NNE 8.1 mph - N/A   Overcast
8:55 PM 64.4 °F 55.4 °F 73% 30.24 in 10.0 mi NNE 8.1 mph - N/A   Overcast
9:35 PM 64.4 °F 55.4 °F 73% 30.25 in 10.0 mi NE 6.9 mph - N/A   Overcast
9:55 PM 64.4 °F 55.4 °F 73% 30.25 in 10.0 mi NE 9.2 mph - N/A   Overcast
10:15 PM 64.4 °F 55.4 °F 73% 30.25 in 10.0 mi NE 11.5 mph 20.7 mph N/A   Overcast
10:35 PM 62.6 °F 55.4 °F 77% 30.26 in 10.0 mi NE 15.0 mph - N/A   Overcast
10:55 PM 62.6 °F 55.4 °F 77% 30.26 in 10.0 mi NE 12.7 mph - N/A   Overcast
11:15 PM 62.6 °F 55.4 °F 77% 30.26 in 10.0 mi NE 10.4 mph - N/A   Overcast
11:35 PM 62.6 °F 55.4 °F 77% 30.26 in 5.0 mi NNE 10.4 mph - N/A   Overcast
11:55 PM 62.6 °F 55.4 °F 77% 30.26 in 7.0 mi NNE 8.1 mph - N/A   Overcast